RH
33 36 39 41 45 49 50 51 53 58 60 65 68 71 74 77 80 83 86 90 97 100 99 100 99 100 100 97 96 98 99 100 94 90 99 100 98 97 99 97 86 85 83
56 52 41 44 47 49 50 54 58 63 68 69 72 75 77 81 89 96 97 98 98 99 99 100 99 100 97 90 98 96 99 98 93 97 99 99 100 100 99 98 92 88 84
62 60 62 59 63 63 69 65 57 63 66 69 76 78 87 94 100 99 92 86 91 98 100 99 95 98 98 91 100 95 91 91 100 99 100 100 99 100 99 97 99 98 88
46 42 44 54 66 63 62 70 78 72 64 67 73 78 81 90 95 88 88 100 94 88 93 93 97 99 87 99 100 89 98 99 99 98 100 100 99 98 98 98 95 96 91
35 35 34 36 44 53 69 71 68 69 71 73 71 74 77 82 82 84 97 96 91 93 94 100 100 99 100 96 98 95 99 99 98 98 99 100 97 96 95 96 95 96 76
39 38 38 36 35 38 40 41 53 58 62 63 65 64 60 67 73 75 77 79 81 86 88 84 93 96 86 100 96 100 100 99 98 99 99 98 98 96 96 96 92 92 92
43 48 50 47 44 42 49 57 58 58 59 59 59 55 57 60 65 71 74 74 82 93 98 99 98 94 99 92 98 98 100 99 97 98 98 96 96 97 97 97 96 95 71
40 41 52 56 58 59 62 65 65 64 68 51 52 61 60 70 64 78 88 95 100 84 99 100 100 98 98 97 96 99 99 98 98 98 97 96 96 96 95 95 95 89 92
35 35 41 55 59 65 70 78 72 56 58 58 53 61 69 58 45 42 36 55 69 76 78 82 97 100 98 100 98 97 98 100 99 97 96 96 96 96 96 95 95 94 92
30 23 18 23 42 71 77 76 60 65 70 72 75 68 40 43 48 42 42 45 45 99 98 98 99 99 98 96 100 100 100 98 98 96 96 96 96 94 95 95 96 94 93
31 26 26 29 39 50 61 61 65 69 79 70 46 40 43 46 47 53 54 65 87 91 91 100 100 100 100 99 98 97 96 96 96 96 96 95 95 94 96 97 96 96 95
38 38 37 37 40 45 49 52 53 51 45 44 46 48 52 56 64 70 74 98 100 99 98 98 97 97 97 96 96 96 96 96 96 95 95 95 96 96 96 97 96 96 96
44 44 43 41 42 45 46 46 46 46 49 54 61 69 82 92 97 100 100 99 98 97 96 96 96 96 96 95 95 95 95 95 96 96 96 96 96 96 96 96 97 97 97
53 54 57 59 59 61 64 66 66 67 71 81 90 100 100 99 99 98 97 96 96 96 96 95 95 95 95 95 95 95 95 95 96 96 96 97 97 97 97 97 97 98 97
62 61 64 68 70 73 76 80 82 88 95 99 99 97 96 96 97 97 96 95 94 94 95 95 95 96 96 95 95 95 96 96 96 97 98 98 98 98 99 99 96 92 85
72 76 79 77 75 76 77 78 80 84 88 91 95 97 97 97 94 93 92 91 89 87 88 90 92 93 95 97 99 100 100 100 100 100 100 100 100 100 96 90 79 63 44
85 83 80 78 77 79 81 86 88 90 92 91 90 90 89 87 84 84 82 76 66 51 39 30 32 40 51 61 70 75 78 77 70 65 59 52 44 38 35 34 33 30 27
87 86 81 80 83 87 88 89 88 86 82 77 73 67 54 32 14 5 4 4 4 5 6 6 8 9 12 15 19 24 28 33 37 40 43 44 45 45 43 42 41 39 38
92 89 87 89 89 88 84 77 73 65 46 20 5 3 3 3 4 4 5 5 6 6 7 7 7 8 9 13 18 24 32 40 46 50 52 54 56 59 59 60 58 57 55
95 93 95 92 83 74 62 32 8 3 3 3 3 4 4 4 4 5 5 6 6 6 5 5 6 7 11 17 27 39 51 60 66 70 70 74 78 78 76 72 70 68 68
95 96 88 73 44 10 3 3 3 3 3 3 3 4 4 5 5 6 6 5 6 6 8 10 14 21 32 45 57 65 71 77 82 83 84 87 87 86 84 80 80 80 76
89 62 22 4 3 3 3 3 3 3 3 4 4 5 6 6 7 7 7 8 10 13 17 22 31 40 49 55 60 64 69 74 78 80 83 85 87 89 90 91 88 83 76
10 3 3 3 3 3 3 3 4 4 4 5 6 7 8 9 10 13 17 22 27 33 37 41 45 50 54 57 60 61 65 71 78 83 88 94 98 98 95 91 86 80 76
3 3 3 3 3 3 4 4 5 5 6 8 9 11 13 17 20 24 28 31 34 36 37 39 41 44 51 60 70 79 84 88 91 94 97 100 100 100 96 91 86 83 81
3 4 4 4 4 4 5 5 6 7 9 10 12 15 18 21 24 26 28 31 35 38 44 49 55 61 68 72 72 74 76 80 84 87 92 97 100 99 97 97 97 98 94
4 4 4 4 5 6 7 7 8 9 11 14 16 19 21 23 25 28 30 34 38 42 44 47 50 53 57 64 71 79 86 90 92 94 96 100 100 100 98 100 100 100 99
Wind_Speed
18 17 16 16 15 16 16 16 17 20 21 24 26 28 31 35 38 43 47 51 53 55 54 57 57 49 51 45 48 43 40 45 42 38 37 38 45 42 41 40 42 44 45
15 19 22 21 20 22 22 22 24 25 25 26 29 33 35 39 42 48 52 51 53 54 49 49 44 52 43 46 48 43 43 44 46 45 37 43 42 42 47 44 43 44 46
16 19 21 22 22 29 24 25 28 28 29 30 31 33 35 36 42 43 40 43 45 48 44 58 63 49 34 43 39 44 46 47 48 44 46 44 43 49 48 45 44 44 47
13 13 15 18 23 18 21 25 30 30 31 32 34 37 40 38 43 36 36 35 33 30 33 32 35 41 40 55 44 50 50 49 46 46 45 52 51 50 47 46 49 49 47
7 7 6 11 14 19 24 26 25 26 28 32 33 34 35 36 34 34 35 33 36 36 36 38 42 44 47 45 51 53 51 54 50 54 51 54 48 48 49 51 53 51 50
11 11 13 14 17 18 19 23 25 28 30 31 32 31 32 33 32 32 34 37 40 41 42 44 42 48 46 45 52 58 55 54 55 52 54 50 53 56 49 51 55 54 55
19 21 21 21 23 26 26 26 25 26 28 29 30 32 32 34 34 35 37 41 43 45 45 46 45 51 49 47 58 47 62 49 45 53 51 51 50 50 53 53 55 53 53
23 25 27 28 28 28 31 29 29 28 30 31 31 32 32 33 32 37 39 40 42 45 44 45 46 47 42 40 47 54 49 47 50 52 51 50 52 55 57 56 55 56 58
26 28 31 30 30 31 32 30 31 31 31 31 31 30 33 35 34 35 37 37 39 38 44 45 45 42 32 36 44 51 53 57 59 58 55 53 56 59 59 61 56 56 57
27 27 27 27 28 29 31 30 30 30 31 32 33 34 34 33 35 36 36 34 35 37 39 44 40 43 51 51 51 54 56 55 52 51 54 57 58 59 56 53 52 54 53
19 17 18 20 24 27 28 29 30 31 33 34 33 34 34 34 35 35 35 31 32 37 41 43 46 49 49 48 48 46 45 47 51 55 58 58 55 52 51 52 53 51 48
16 16 18 20 22 24 26 27 28 29 30 30 32 33 33 33 33 35 34 31 36 40 43 45 46 46 45 45 47 51 55 58 59 57 54 53 51 50 49 47 46 44 43
15 16 18 21 22 23 25 26 28 29 30 30 30 30 32 33 35 35 36 39 42 41 41 42 43 46 50 54 56 57 57 55 53 51 50 49 48 47 46 44 43 41 39
16 19 20 20 21 23 25 26 28 29 29 28 28 27 29 32 34 35 36 38 40 43 46 48 51 52 53 53 53 53 52 51 50 49 48 47 46 45 44 42 41 40 41
18 19 20 21 24 25 26 26 27 26 25 25 26 27 30 33 35 38 41 44 46 48 49 50 51 51 52 52 52 52 51 50 48 47 46 45 44 43 43 44 44 44 45
18 19 21 23 23 23 22 22 21 21 21 24 27 29 32 35 37 39 41 43 46 48 50 51 53 53 53 53 52 51 50 49 48 48 48 47 47 46 46 45 44 43 42
17 21 22 21 20 20 19 19 20 21 22 24 26 28 31 34 37 39 42 45 48 51 52 54 55 55 55 54 54 53 52 52 51 50 48 46 45 44 42 41 40 39 38
19 18 20 21 21 19 18 19 20 23 25 28 31 34 36 39 42 44 47 50 52 53 54 56 56 56 55 54 54 52 51 49 47 46 44 42 40 39 38 36 35 34 33
17 19 20 19 17 17 19 21 23 26 30 32 36 39 42 45 48 50 51 52 53 54 53 53 53 52 51 50 48 47 45 43 42 40 39 37 36 34 32 30 29 28 27
18 18 16 16 18 20 23 25 28 30 33 36 39 41 43 44 46 47 49 49 50 49 49 48 46 45 43 41 39 38 36 35 34 33 32 30 29 28 26 25 24 24 23
15 15 17 19 22 24 26 28 31 34 36 37 39 41 42 43 44 44 43 42 41 39 38 36 35 33 32 31 30 30 29 28 28 27 26 25 24 23 22 22 21 21 20
15 17 20 22 24 26 29 31 32 34 35 37 39 39 40 39 39 38 37 36 34 33 32 31 30 29 28 28 27 26 26 25 24 24 23 22 20 20 20 19 19 18 17
17 19 22 24 27 28 30 31 32 34 35 36 36 36 35 34 34 33 32 31 30 30 30 29 28 27 27 26 26 26 24 23 22 21 19 17 17 17 17 16 16 15 15
20 22 24 25 26 28 29 31 33 34 34 33 33 32 31 30 29 29 29 30 30 30 30 29 28 27 26 25 24 23 22 21 20 18 16 15 14 15 15 14 15 14 13
20 22 23 25 27 29 31 32 32 31 31 31 30 29 28 28 28 29 29 29 28 28 28 27 26 25 23 23 22 21 20 19 18 16 15 14 13 13 14 13 12 11 11
21 23 24 26 28 29 29 29 29 29 29 28 27 27 27 27 27 27 27 27 27 26 26 25 25 24 23 22 21 20 19 18 18 17 15 14 13 13 12 11 10 9 8
Wind_Direction
223 219 217 220 222 226 227 227 228 229 229 231 235 240 244 247 250 254 257 258 259 261 261 260 258 257 255 260 263 273 269 276 278 283 282 284 281 286 289 282 283 280 280
231 229 230 231 240 244 242 241 242 245 247 248 248 250 251 254 257 258 262 269 271 263 269 267 266 271 254 254 259 270 264 274 278 274 270 276 278 283 277 280 280 278 279
226 232 231 225 237 241 256 248 250 251 252 253 255 258 261 265 269 276 277 282 280 276 264 266 263 267 250 263 263 271 274 268 276 264 264 278 281 275 270 282 276 276 277
205 216 229 234 234 237 242 257 262 254 253 256 257 258 260 264 268 271 264 278 284 281 272 267 265 274 267 270 267 269 274 265 263 269 268 274 271 266 275 278 279 277 277
206 221 232 224 230 246 250 252 252 251 254 255 260 264 265 262 269 272 271 274 278 278 276 273 269 270 272 267 268 265 271 259 269 259 276 267 264 278 282 279 276 276 275
235 236 235 238 242 248 250 246 248 251 255 258 259 261 263 265 267 271 271 272 273 275 276 277 278 276 274 264 269 265 262 268 266 261 264 263 272 278 276 275 276 278 280
242 246 244 244 248 249 247 250 255 260 260 259 262 267 269 269 271 272 273 272 275 276 275 278 267 278 262 263 269 276 280 266 271 268 266 273 273 273 274 272 276 281 279
246 250 253 251 252 254 254 257 261 266 263 269 271 273 275 278 276 277 277 274 272 281 274 275 277 282 275 279 282 276 271 267 267 265 267 267 266 270 275 277 279 279 284
246 256 255 254 256 257 259 265 268 267 269 273 277 279 279 281 280 284 285 281 277 276 276 273 280 270 280 277 281 277 273 268 266 266 267 269 273 276 282 285 290 289 291
264 269 269 265 260 259 265 270 275 276 279 280 279 276 274 277 278 282 284 280 285 278 284 280 272 278 284 287 282 273 265 265 268 273 279 283 287 289 289 291 290 291 290
266 266 264 264 261 263 267 270 272 273 273 273 273 274 277 279 281 284 286 287 284 280 276 277 276 277 275 272 265 268 276 283 284 285 285 286 288 289 289 289 289 287 286
257 266 270 270 269 269 271 273 274 274 275 276 278 280 282 286 285 284 287 278 274 273 271 270 269 269 273 275 278 281 284 286 288 288 287 288 288 288 288 287 286 284 282
259 266 270 268 270 272 274 274 275 275 275 275 279 283 287 290 289 284 276 268 267 271 277 280 283 284 286 287 287 288 288 289 289 289 289 289 289 288 287 286 284 281 280
267 273 270 273 276 278 278 279 279 279 279 281 284 286 283 279 277 279 282 283 284 286 287 288 289 290 290 291 291 291 291 292 292 291 291 290 289 288 287 285 283 281 281
273 274 282 289 290 289 287 286 285 285 285 285 285 285 284 285 286 288 289 291 293 294 294 294 294 295 296 296 296 295 295 294 292 291 290 289 288 287 285 284 284 284 284
281 288 293 294 294 292 291 290 289 290 290 288 287 289 291 292 293 295 295 295 295 296 296 296 297 297 296 296 295 294 293 292 291 290 289 288 287 287 286 285 284 282 281
295 298 298 299 301 301 299 299 299 299 299 299 299 299 299 299 299 299 298 298 299 299 299 299 299 299 298 297 296 295 294 293 292 291 290 289 288 287 285 284 283 282 281
300 301 308 311 309 307 307 309 310 311 311 309 307 305 304 304 304 305 305 305 304 303 302 301 300 299 298 298 297 296 295 294 293 292 291 289 288 287 286 284 283 282 280
303 307 309 308 308 310 312 313 313 312 311 311 311 312 313 312 310 308 307 306 305 304 303 302 301 300 299 298 298 297 297 296 294 293 291 290 290 289 288 287 285 284 283
305 307 307 310 313 315 315 315 315 315 315 315 314 313 311 310 308 307 307 307 307 308 308 308 307 307 307 306 305 304 302 300 298 297 296 296 294 293 291 288 286 286 285
305 311 314 314 315 317 318 318 318 317 317 315 314 313 313 313 314 314 315 317 318 319 320 321 322 323 322 320 318 315 313 310 306 304 302 300 298 296 293 293 293 291 290
310 312 315 317 318 320 321 321 320 319 319 319 320 321 322 323 325 327 328 330 332 332 333 333 333 332 330 327 324 322 320 316 313 310 307 306 304 300 295 295 295 294 292
314 317 320 323 324 323 323 323 324 325 325 326 328 330 331 333 335 337 339 339 340 340 339 339 338 336 333 330 327 326 324 321 318 315 313 310 304 300 298 299 297 294 295
321 324 325 324 325 327 328 329 329 330 332 334 335 336 337 338 339 339 340 341 340 338 337 336 335 334 333 332 330 329 328 327 325 323 320 316 310 305 303 300 298 297 297
325 326 328 331 332 332 333 334 334 335 336 336 337 338 339 339 340 340 339 338 338 337 336 336 335 336 335 335 334 333 333 331 329 328 326 320 314 308 304 302 300 300 300
331 333 334 335 336 336 336 336 336 336 337 338 338 339 340 340 339 338 338 338 337 336 335 335 335 336 336 336 335 335 334 332 330 330 328 323 318 311 310 308 306 305 296